Location: Noverd
(38.0910°N, 121.6877°W)
Time: 15:23:11
(UTC+00:00)

Envisat - Pass Details

Date: 15 April 2026
Orbit: 761 x 762 km, 98.4° (Epoch: 15 May)

Event Time Altitude Azimuth Distance (km) Brightness Sun altitude
Rises 11:21:58 0° 4° (N) 3,231 6.8 -23.9°
Reaches altitude 10° 11:24:24 10° 356° (N) 2,301 5.8 -23.5°
Enters shadow 11:28:57 38° 293° (WNW) 1,145 3.6 -22.8°
